Location: La Pernelle
(49.6188°N, 1.2999°W)
Time: 03:53:51
(UTC+00:00)

NOSS 3-2 (A) - Pass Details

Date: 18 October 2021
Orbit: 771 x 1437 km, 63.4° (Epoch: 21 November)

Event Time Altitude Azimuth Distance (km) Brightness Sun altitude
Rises 18:53:15 0° 294° (WNW) 3,603 7.8 -17.7°
Reaches altitude 10° 18:56:08 10° 308° (NW) 2,759 6.7 -18.2°
Maximum altitude 19:01:32 26° 4° (N) 2,008 5.2 -19.0°
Enters shadow 19:06:04 15° 50° (NE) 2,736 5.5 -19.8°
